[[{"header":{"parameterUnit":"m.s-1","parameterCategory":1,"la1":30.2991,"la2":30.254,"lo1":-89.0895,"lo2":-89.0444,"dy":0.0017,"dx":0.0017,"nx":28,"ny":28,"refTime":"2025-03-17T21:00:00:Z","depth":0,"parameterNumber":2,"parameterNumberName":"U-component_of_WINDS"},"data":[0,0,0,0,0,0,0,0,0,0,0,0,0,0,0,0,0,0,0,0,0,0,0,0,0,0,0,0,0,0,0,0,0,0,0,0,0,0,0,0,0,0,0,0,0,0,0,0,0,0,0,0,0,0,0,0,0,0,2.3152,2.3153,0,2.3242,2.3243,2.3244,2.3242,2.3241,2.3239,2.3238,2.3334,2.3337,2.3341,0,0,0,0,0,0,0,0,0,0,0,0,0,2.2982,2.2985,2.3152,2.3153,2.3154,2.3242,2.3243,2.3245,2.3242,2.3241,2.3239,2.3238,2.3332,2.3337,2.3341,0,0,0,0,0,0,0,0,0,0,0,0,0,2.3063,2.2986,2.3152,2.3164,2.3166,2.3242,2.3243,2.3245,2.3242,2.3241,2.3239,2.3237,2.3331,2.3336,2.3342,2.3413,0,0,2.3359,2.3361,0,0,0,0,0,0,0,0,2.3058,2.3069,2.3161,2.3163,2.3165,2.3229,2.3218,2.3301,2.3243,2.3213,2.3238,2.3236,2.33,2.3308,2.3329,2.3418,2.3422,2.3359,2.3363,2.3365,2.3366,0,0,0,0,0,0,0,2.3053,2.3065,2.3188,2.3162,2.3165,2.3166,2.3175,2.3234,2.3266,2.3216,2.3216,2.3226,2.3301,2.3324,2.3332,2.3423,2.3359,2.3364,2.3367,2.337,2.3578,2.358,0,0,0,0,0,0,2.3044,2.306,2.3185,2.3191,2.3106,2.317,2.3181,2.321,2.3266,2.3272,2.3228,2.3226,2.3316,2.3325,2.3335,2.3425,2.3365,2.337,2.3373,2.3576,2.3579,2.3581,0,0,0,0,0,0,2.304,2.3055,2.3181,2.3126,2.3142,2.3175,2.3208,2.3213,2.3236,2.3275,2.3281,2.3245,2.3314,2.3327,2.3394,2.3428,2.3373,2.3378,2.3573,2.3577,2.358,2.3603,0,0,0,0,0,0,2.3035,2.3054,2.308,2.3126,2.3145,2.3238,2.321,2.3216,2.3245,2.3243,2.3292,2.3299,2.3314,2.3386,2.34,2.3434,2.3382,2.357,2.3575,2.3579,2.3599,2.3606,2.3613,0,0,0,0,0,2.3029,2.3083,2.3081,2.3096,2.3178,2.324,2.325,2.3266,2.3248,2.3276,2.3301,2.3297,2.3422,2.3393,2.3408,2.3445,2.3568,2.3574,2.3578,2.3596,2.3605,2.3613,0,0,0,0,0,0,2.304,2.3089,2.3088,2.3158,2.3195,2.3239,2.3274,2.3274,2.3318,2.3315,2.3333,2.3344,2.3412,2.3435,2.3402,2.3519,2.3493,2.3501,2.3501,2.351,2.3517,2.351,2.3387,0,0,0,0,0,2.3051,2.3096,2.3136,2.3194,2.3212,2.324,2.3268,2.3277,2.3316,2.3332,2.3362,2.3401,2.345,2.3481,2.3527,2.3602,2.3615,2.3636,2.3642,2.3648,2.3655,2.3699,2.371,2.3597,2.3597,2.3597,0,0,2.3073,2.3105,2.3132,2.3197,2.3227,2.3274,2.3253,2.3304,2.334,2.334,2.3405,2.3429,2.3474,2.3546,2.358,2.3568,2.3689,2.3654,2.3658,2.3663,2.3706,2.3716,2.3726,2.3601,2.36,2.36,0,0,2.3138,2.3166,2.3218,2.3249,2.3294,2.3312,2.3325,2.337,2.3386,2.3452,2.3453,2.3497,2.3579,2.3612,2.3639,2.372,2.3719,2.3734,2.377,2.3813,2.3822,2.383,2.3861,2.3871,2.3741,2.3741,2.3741,0,2.316,2.3231,2.3245,2.3297,2.3327,2.3328,2.3383,2.3412,2.347,2.3491,2.3477,2.3581,2.3612,2.3693,2.3713,2.3734,2.3751,2.3729,2.3819,2.3827,2.3835,2.3865,2.3876,2.3743,2.3743,2.3743,2.3743,0,2.3257,2.3307,2.3344,2.34,2.3434,2.3486,2.3511,2.3543,2.355,2.3571,2.3639,2.3676,2.3731,2.3751,2.3757,2.3834,2.3825,2.3815,2.379,2.3847,2.3876,2.3887,2.3746,2.3745,2.3744,2.3744,0,0,2.3332,2.3396,2.341,2.3436,2.3487,2.3526,2.358,2.3634,2.3662,2.3703,2.375,2.3821,2.3812,2.3843,2.3854,2.3891,2.3956,2.3877,2.3878,2.3892,2.4045,2.4054,2.4067,2.3955,2.3957,2.3959,2.4042,0,2.3404,2.3498,2.3514,2.3598,2.3645,2.3648,2.3695,2.3733,2.3754,2.3798,2.3822,2.3873,2.3856,2.3876,2.3913,2.394,2.3987,2.3934,2.4001,2.4004,2.3991,2.4081,2.409,2.4166,2.4053,2.4055,2.4056,0,2.35,2.3543,2.3632,2.3679,2.3699,2.3741,2.3793,2.3834,2.3878,2.3891,2.3927,2.3933,2.3992,2.3963,2.4045,2.4009,2.4038,2.4056,2.4059,2.4067,2.4034,2.4093,2.4191,2.4203,2.4073,2.4072,2.4071,0,2.3548,2.3628,2.3692,2.3715,2.377,2.38,2.3825,2.3866,2.3898,2.3944,2.3965,2.4017,2.4045,2.4086,2.4108,2.4084,2.419,2.4162,2.4204,2.4204,2.4227,2.4225,2.4332,2.4242,2.4242,2.4242,2.4242,0,2.3628,2.3682,2.3715,2.3754,2.3817,2.3835,2.3897,2.3921,2.3958,2.4004,2.4009,2.4053,2.4078,2.4125,2.4142,2.4209,2.4222,2.4236,2.424,2.4236,2.4235,2.4256,2.4252,2.4245,2.4244,2.4244,2.4243,0,2.3692,2.3716,2.3786,2.3833,2.3846,2.389,2.3931,2.3971,2.3992,2.4051,2.4065,2.41,2.4156,2.4181,2.4251,2.4263,2.434,2.4339,2.4325,2.4327,2.4368,2.4365,2.4494,2.4513,2.4409,2.441,2.441,0,2.3742,2.3784,2.3836,2.3867,2.3892,2.3942,2.3974,2.3995,2.4029,2.4083,2.4117,2.4173,2.4219,2.431,2.4342,2.4396,2.4398,2.444,2.4406,2.4402,2.4401,2.4399,2.4405,2.4446,2.4447,2.4448,2.4449,0,2.3829,2.3839,2.3885,2.3937,2.3976,2.4017,2.4058,2.4084,2.4111,2.4149,2.4207,2.4243,2.4314,2.4371,2.4427,2.4455,2.4458,2.4459,2.4472,2.4469,2.446,2.4468,2.4343,2.4456,2.4455,2.4455,2.4454,2.4454,2.3889,2.3928,2.3971,2.4023,2.4056,2.4095,2.4135,2.4162,2.421,2.4269,2.4278,2.4341,2.4385,2.4461,2.4491,2.4541,2.4531,2.4549,2.4554,2.4559,2.4563,2.4451,2.4551,2.4551,2.4551,2.4551,2.455,0,2.3979,2.4007,2.4055,2.4112,2.4154,2.4151,2.4197,2.4233,2.4287,2.4328,2.4374,2.4441,2.4497,2.4534,2.4591,2.4624,2.4627,2.4638,2.4637,2.4644,2.4567,2.4551,2.4635,2.4635,2.4635,2.4635,2.4635,2.4635,2.403,2.4096,2.4112,2.4195,2.4223,2.4283,2.431,2.4347,2.438,2.4455,2.4501,2.4524,2.4565,2.4625,2.4677,2.4686,2.4708,2.472,2.473,2.4658,2.4649,2.464,2.4626,2.4724,2.4724,2.4803,2.4803,2.4804]},{"header":{"parameterUnit":"m.s-1","parameterCategory":1,"la1":30.2991,"la2":30.254,"lo1":-89.0895,"lo2":-89.0444,"dy":0.0017,"dx":0.0017,"nx":28,"ny":28,"refTime":"2025-03-17T21:00:00:Z","depth":0,"parameterNumber":3,"parameterNumberName":"V-component_of_WINDS"},"data":[0,0,0,0,0,0,0,0,0,0,0,0,0,0,0,0,0,0,0,0,0,0,0,0,0,0,0,0,0,0,0,0,0,0,0,0,0,0,0,0,0,0,0,0,0,0,0,0,0,0,0,0,0,0,0,0,0,0,-1.1177,-1.1178,0,-1.1267,-1.1268,-1.1269,-1.1397,-1.1399,-1.1401,-1.1403,-1.1493,-1.1494,-1.1494,0,0,0,0,0,0,0,0,0,0,0,0,0,-1.1116,-1.1116,-1.1177,-1.1178,-1.1179,-1.1267,-1.1268,-1.1269,-1.1396,-1.1399,-1.1402,-1.1404,-1.1493,-1.1494,-1.1494,0,0,0,0,0,0,0,0,0,0,0,0,0,-1.1167,-1.1116,-1.1176,-1.1253,-1.1261,-1.1266,-1.1268,-1.1269,-1.1396,-1.1399,-1.1402,-1.1405,-1.1493,-1.1493,-1.1494,-1.1431,0,0,-1.1496,-1.1496,0,0,0,0,0,0,0,0,-1.1164,-1.117,-1.1241,-1.1248,-1.1256,-1.1324,-1.128,-1.1324,-1.1395,-1.1344,-1.1403,-1.1407,-1.1434,-1.144,-1.1449,-1.1435,-1.1439,-1.1496,-1.1496,-1.1496,-1.1496,0,0,0,0,0,0,0,-1.1161,-1.1166,-1.1212,-1.1242,-1.1251,-1.1283,-1.1294,-1.1289,-1.137,-1.1349,-1.1359,-1.1368,-1.1439,-1.1448,-1.1452,-1.1441,-1.1496,-1.1496,-1.1496,-1.1497,-1.1384,-1.1381,0,0,0,0,0,0,-1.1146,-1.1163,-1.1209,-1.1215,-1.1218,-1.1282,-1.1294,-1.1299,-1.137,-1.1384,-1.1365,-1.1373,-1.1446,-1.1452,-1.1456,-1.1389,-1.1496,-1.1497,-1.1497,-1.1387,-1.1383,-1.138,0,0,0,0,0,0,-1.1144,-1.1149,-1.1206,-1.1192,-1.1201,-1.1279,-1.1284,-1.1299,-1.1309,-1.1382,-1.1397,-1.1359,-1.1449,-1.1455,-1.1438,-1.1394,-1.1497,-1.1497,-1.1391,-1.1386,-1.1381,-1.1254,0,0,0,0,0,0,-1.1142,-1.1147,-1.1124,-1.119,-1.1201,-1.1185,-1.1281,-1.1298,-1.1309,-1.1321,-1.1381,-1.1394,-1.1452,-1.1436,-1.1438,-1.1397,-1.1498,-1.1395,-1.1389,-1.1383,-1.1262,-1.1245,-1.123,0,0,0,0,0,-1.1139,-1.1083,-1.1122,-1.1127,-1.1174,-1.1182,-1.1189,-1.1257,-1.1305,-1.1283,-1.1331,-1.1392,-1.1399,-1.1433,-1.1436,-1.1395,-1.1398,-1.1391,-1.1383,-1.1269,-1.1248,-1.1231,0,0,0,0,0,0,-1.1007,-1.1093,-1.1137,-1.11,-1.1133,-1.1204,-1.1177,-1.1232,-1.1252,-1.1262,-1.1346,-1.1358,-1.133,-1.1361,-1.1398,-1.134,-1.1408,-1.1401,-1.132,-1.1301,-1.1285,-1.1278,-1.1498,0,0,0,0,0,-1.0974,-1.0974,-1.1049,-1.101,-1.1024,-1.1097,-1.1104,-1.1154,-1.1191,-1.1205,-1.1252,-1.1285,-1.1296,-1.13,-1.1313,-1.1268,-1.1284,-1.1241,-1.1225,-1.1212,-1.1204,-1.1186,-1.1168,-1.1355,-1.1355,-1.1355,0,0,-1.0905,-1.0952,-1.0947,-1.0985,-1.1016,-1.1015,-1.1108,-1.1102,-1.1102,-1.1204,-1.1191,-1.1226,-1.127,-1.1238,-1.1227,-1.1263,-1.1157,-1.1202,-1.1191,-1.1191,-1.1176,-1.1158,-1.1142,-1.135,-1.1351,-1.1352,0,0,-1.078,-1.0814,-1.0787,-1.0817,-1.0865,-1.0915,-1.0908,-1.0971,-1.0999,-1.0987,-1.1065,-1.1067,-1.1082,-1.111,-1.1126,-1.1016,-1.1074,-1.1018,-1.0935,-1.0915,-1.09,-1.0888,-1.085,-1.0835,-1.1011,-1.101,-1.101,0,-1.0688,-1.0689,-1.0765,-1.0756,-1.0771,-1.0866,-1.0839,-1.0865,-1.0913,-1.0922,-1.0962,-1.0986,-1.1021,-1.0999,-1.0973,-1.0982,-1.0979,-1.1011,-1.0897,-1.0885,-1.0874,-1.0839,-1.0824,-1.1003,-1.1004,-1.1005,-1.1006,0,-1.0575,-1.0575,-1.0547,-1.0593,-1.0606,-1.0587,-1.0661,-1.0665,-1.0715,-1.0761,-1.075,-1.0797,-1.0822,-1.0821,-1.0869,-1.0807,-1.0828,-1.0881,-1.0952,-1.0848,-1.0816,-1.0803,-1.0993,-1.0996,-1.0998,-1.1,0,0,-1.0365,-1.0457,-1.0446,-1.0469,-1.053,-1.0532,-1.0519,-1.0546,-1.0548,-1.0579,-1.0571,-1.0584,-1.0635,-1.0653,-1.0706,-1.0689,-1.0601,-1.0745,-1.0747,-1.0717,-1.0538,-1.0497,-1.048,-1.0641,-1.0638,-1.0637,-1.0535,0,-1.0251,-1.0234,-1.0305,-1.027,-1.0272,-1.0364,-1.0354,-1.039,-1.0434,-1.0442,-1.0491,-1.0499,-1.0564,-1.0577,-1.0564,-1.0614,-1.0566,-1.0623,-1.0635,-1.0634,-1.062,-1.0464,-1.042,-1.0321,-1.0523,-1.052,-1.0519,0,-1.0115,-1.0141,-1.0107,-1.0173,-1.0177,-1.0165,-1.0198,-1.0204,-1.0249,-1.0282,-1.0305,-1.0367,-1.0361,-1.0429,-1.0422,-1.0459,-1.0469,-1.0494,-1.0492,-1.0495,-1.0569,-1.0463,-1.0291,-1.0276,-1.05,-1.0501,-1.0503,0,-0.9967,-0.9994,-0.9978,-0.9995,-1.0071,-1.0062,-1.0093,-1.0141,-1.0154,-1.0182,-1.0192,-1.0218,-1.0232,-1.0252,-1.032,-1.0363,-1.0306,-1.0379,-1.0334,-1.0332,-1.0317,-1.0317,-1.0144,-1.0323,-1.0323,-1.0323,-1.0323,0,-0.9832,-0.9807,-0.9912,-0.9902,-0.9878,-0.9961,-0.9935,-0.9976,-1.0018,-1.0019,-1.01,-1.0099,-1.0189,-1.0199,-1.0252,-1.024,-1.0245,-1.0272,-1.0287,-1.0265,-1.0261,-1.0272,-1.028,-1.0319,-1.032,-1.0321,-1.0322,0,-0.9661,-0.9731,-0.9719,-0.9794,-0.9812,-0.9791,-0.9856,-0.985,-0.9901,-0.99,-0.9905,-0.9983,-0.9999,-1.007,-1.0101,-1.0138,-1.0107,-1.0135,-1.0092,-1.0101,-1.0052,-1.0056,-0.988,-0.9862,-1.0051,-1.0049,-1.0048,0,-0.957,-0.9554,-0.9628,-0.9635,-0.9663,-0.9672,-0.9686,-0.9768,-0.978,-0.9832,-0.982,-0.9843,-0.9865,-0.9885,-0.9945,-0.9971,-1.0001,-0.9938,-1.0005,-0.9985,-1.0001,-1.0001,-1.0001,-0.9923,-0.992,-0.9918,-0.9917,0,-0.9402,-0.9438,-0.9456,-0.9486,-0.9501,-0.9529,-0.9561,-0.9562,-0.9653,-0.9662,-0.968,-0.9697,-0.9731,-0.9753,-0.979,-0.9823,-0.9885,-0.9895,-0.9887,-0.9863,-0.9839,-0.9853,-1.0052,-0.9899,-0.99,-0.9902,-0.9903,-0.9903,-0.9269,-0.926,-0.9312,-0.9329,-0.9363,-0.9392,-0.9392,-0.9443,-0.946,-0.9494,-0.9542,-0.9554,-0.9603,-0.9659,-0.9688,-0.9699,-0.9734,-0.972,-0.9717,-0.9712,-0.9702,-0.9838,-0.9706,-0.9706,-0.9707,-0.9708,-0.9708,0,-0.9106,-0.9144,-0.916,-0.9204,-0.9219,-0.9278,-0.9318,-0.9326,-0.9336,-0.9377,-0.9398,-0.942,-0.9442,-0.9506,-0.9535,-0.9532,-0.9562,-0.9537,-0.9538,-0.9545,-0.9668,-0.9674,-0.9513,-0.9513,-0.9513,-0.9513,-0.9513,-0.9513,-0.9022,-0.9011,-0.9053,-0.9061,-0.91,-0.9113,-0.9131,-0.9159,-0.9193,-0.9214,-0.9233,-0.9275,-0.9326,-0.9361,-0.9385,-0.9403,-0.941,-0.9376,-0.9404,-0.9517,-0.9536,-0.9554,-0.9559,-0.9377,-0.9377,-0.928,-0.9279,-0.9279]}]]